TimeEDT,TemperatureF,Dew PointF,Humidity,Sea Level PressureIn,VisibilityMPH,Wind Direction,Wind SpeedMPH,Gust SpeedMPH,PrecipitationIn,Events,Conditions,WindDirDegrees,DateUTC
12:53 AM,42.1,39.9,92,30.13,10.0,Calm,Calm,-,N/A,,Clear,0,2013-09-09 04:53:00
1:26 AM,41.0,39.2,93,30.13,1.8,Calm,Calm,-,N/A,,Clear,0,2013-09-09 05:26:00
1:37 AM,41.0,39.2,93,30.13,3.0,Calm,Calm,-,N/A,,Clear,0,2013-09-09 05:37:00
1:53 AM,39.9,37.9,93,30.15,2.5,Calm,Calm,-,N/A,,Clear,0,2013-09-09 05:53:00
2:08 AM,41.0,39.2,93,30.14,4.0,Calm,Calm,-,N/A,,Clear,0,2013-09-09 06:08:00
2:44 AM,39.2,37.4,93,30.15,1.8,Calm,Calm,-,N/A,,Clear,0,2013-09-09 06:44:00
2:53 AM,41.0,37.9,89,30.16,4.0,Calm,Calm,-,N/A,,Clear,0,2013-09-09 06:53:00
3:04 AM,39.2,37.4,93,30.15,2.0,Calm,Calm,-,N/A,,Partly Cloudy,0,2013-09-09 07:04:00
3:09 AM,39.2,37.4,93,30.15,1.2,Calm,Calm,-,N/A,,Scattered Clouds,0,2013-09-09 07:09:00
3:14 AM,39.2,39.2,100,30.15,2.0,Calm,Calm,-,N/A,,Partly Cloudy,0,2013-09-09 07:14:00
3:22 AM,39.2,39.2,100,30.15,10.0,Calm,Calm,-,N/A,,Partly Cloudy,0,2013-09-09 07:22:00
3:53 AM,39.9,37.9,93,30.15,10.0,Calm,Calm,-,N/A,,Clear,0,2013-09-09 07:53:00
4:53 AM,39.0,37.0,93,30.17,10.0,Calm,Calm,-,N/A,,Clear,0,2013-09-09 08:53:00
5:53 AM,39.0,36.0,89,30.17,4.0,Calm,Calm,-,N/A,,Clear,0,2013-09-09 09:53:00
6:53 AM,41.0,39.0,93,30.19,10.0,Calm,Calm,-,N/A,,Clear,0,2013-09-09 10:53:00
7:53 AM,44.1,42.1,93,30.19,10.0,Calm,Calm,-,N/A,,Clear,0,2013-09-09 11:53:00
8:53 AM,52.0,45.0,77,30.17,10.0,SSW,5.8,-,N/A,,Clear,210,2013-09-09 12:53:00
9:53 AM,57.9,46.0,65,30.16,10.0,SW,9.2,-,N/A,,Clear,220,2013-09-09 13:53:00
10:53 AM,62.1,43.0,50,30.15,10.0,SSW,11.5,-,N/A,,Clear,200,2013-09-09 14:53:00
11:53 AM,63.0,44.1,50,30.14,10.0,SW,12.7,-,N/A,,Clear,220,2013-09-09 15:53:00
12:53 PM,64.9,46.0,50,30.14,10.0,SW,15.0,21.9,N/A,,Clear,230,2013-09-09 16:53:00
1:53 PM,66.9,48.0,51,30.14,10.0,SW,11.5,-,N/A,,Clear,220,2013-09-09 17:53:00
2:53 PM,66.9,46.0,47,30.10,10.0,SSW,12.7,-,N/A,,Clear,210,2013-09-09 18:53:00
3:53 PM,68.0,46.9,47,30.08,10.0,SW,6.9,-,N/A,,Clear,220,2013-09-09 19:53:00
4:53 PM,66.0,48.0,52,30.06,10.0,SSW,3.5,-,N/A,,Clear,210,2013-09-09 20:53:00
5:53 PM,64.9,52.0,63,30.04,10.0,South,3.5,-,N/A,,Clear,170,2013-09-09 21:53:00
6:53 PM,63.0,55.0,75,30.03,10.0,Calm,Calm,-,N/A,,Clear,0,2013-09-09 22:53:00
7:53 PM,55.0,53.1,93,30.03,9.0,Calm,Calm,-,N/A,,Clear,0,2013-09-09 23:53:00
8:53 PM,54.0,52.0,93,30.02,10.0,Calm,Calm,-,N/A,,Clear,0,2013-09-10 00:53:00
9:53 PM,51.1,48.9,92,30.00,10.0,Calm,Calm,-,N/A,,Clear,0,2013-09-10 01:53:00
10:53 PM,51.1,48.9,92,30.00,10.0,Calm,Calm,-,N/A,,Clear,0,2013-09-10 02:53:00
11:53 PM,53.1,51.1,93,29.99,10.0,Calm,Calm,-,N/A,,Partly Cloudy,0,2013-09-10 03:53:00